Wind_Speed
74 74 75 75 75 76 76 76 76 76 77 76 76 76 76 75 75 75 74 74 73 72 71 70 68 67 65 64 62 60 58 55 53 52 51 51 51 50 49 47 45 47 52 63 75 85 91 96 101 105 106 105 103 102 101 100 99 97 96 93 90 87 84 82 80 78 77 77 78 80 83 84 86 87 87 88 88 88 87 86 85 83 81 79 77 76
75 75 76 76 76 77 77 78 78 78 78 78 78 78 78 77 77 76 76 75 74 73 72 71 69 68 66 64 63 61 58 56 54 52 51 51 51 51 49 48 46 47 51 61 73 84 92 98 103 107 109 107 105 103 102 101 100 99 98 95 92 89 86 84 81 79 77 76 76 77 79 81 83 85 87 88 88 88 88 87 85 84 82 80 78 76
76 77 77 77 77 78 78 79 79 79 80 80 80 80 80 80 79 78 78 76 75 74 73 71 70 68 66 65 63 61 59 56 54 52 52 52 52 51 50 49 47 47 50 58 70 82 91 98 104 108 110 109 107 105 103 102 102 101 100 97 94 91 88 86 83 80 78 76 75 75 76 79 81 83 85 87 88 89 88 88 86 85 83 81 79 77
78 78 79 79 79 79 80 80 80 81 81 81 82 82 82 82 81 81 79 78 77 75 74 72 70 68 67 65 64 62 59 57 54 53 52 52 52 52 52 50 49 48 50 57 67 79 90 98 104 109 112 112 109 107 105 104 103 103 101 99 96 93 91 88 85 82 79 77 75 75 75 77 79 81 83 86 88 89 90 89 88 86 84 82 80 78
80 80 80 80 80 81 81 81 82 82 83 83 83 84 84 84 83 82 81 80 78 76 74 72 70 68 66 65 64 62 60 57 55 53 52 52 53 53 53 52 50 49 50 55 64 76 87 96 103 109 113 114 112 109 107 105 105 105 104 101 98 95 93 91 88 84 81 79 77 76 76 76 77 79 81 84 87 89 90 90 90 88 87 85 82 80
82 82 82 82 82 83 83 83 83 84 84 85 85 85 86 85 85 84 83 82 80 78 75 73 70 68 66 65 64 62 61 58 55 53 52 52 53 54 54 53 52 51 51 54 62 72 84 94 102 109 114 115 114 111 109 107 107 107 106 103 100 98 96 93 90 87 84 81 79 78 77 76 76 77 79 82 85 88 90 91 91 91 89 87 85 83
84 84 84 84 84 85 85 86 86 86 86 87 87 88 87 87 87 86 85 83 81 79 76 74 71 68 66 64 63 62 61 58 56 53 52 53 53 54 55 55 54 52 52 54 60 69 80 91 100 108 113 116 116 114 111 110 109 109 108 106 103 100 98 96 93 91 88 85 82 80 79 77 77 76 77 79 82 85 88 90 92 92 91 90 88 86
86 86 86 86 87 87 88 88 88 88 89 89 89 90 89 89 88 87 86 84 82 80 78 75 72 68 66 64 63 62 61 59 56 54 52 53 54 55 56 56 56 54 53 54 58 66 76 87 97 106 113 117 118 116 114 112 111 111 111 109 106 103 100 98 96 94 92 89 86 83 81 79 78 77 77 78 80 83 86 89 91 92 93 92 91 89
88 88 89 89 89 90 90 91 91 91 91 91 91 91 91 91 90 89 87 85 83 81 78 76 73 69 66 63 62 61 61 59 57 54 53 53 54 56 57 58 57 56 55 55 58 64 72 83 94 104 112 117 119 119 117 114 113 114 114 112 109 106 103 101 99 98 95 93 90 86 83 81 79 78 77 77 79 82 84 87 90 92 93 94 93 92
90 91 91 92 92 92 93 93 94 93 93 93 93 93 92 92 91 90 89 87 85 82 79 77 74 70 66 63 61 61 60 60 57 55 53 53 54 56 58 59 59 58 57 56 58 62 70 79 90 100 109 116 120 121 119 117 116 116 116 115 112 109 106 104 102 101 99 97 94 91 87 84 81 79 78 78 79 81 84 86 89 92 94 95 95 94
93 93 94 95 95 95 95 96 96 95 95 95 95 94 94 93 92 91 90 88 86 83 80 77 74 70 66 63 61 60 60 59 58 56 54 54 55 57 59 60 61 60 59 58 59 62 67 76 86 96 106 114 119 122 121 120 119 118 118 117 115 112 109 106 105 103 102 101 99 96 92 88 85 82 79 79 79 81 83 85 88 91 93 95 96 96
95 96 96 97 97 97 97 97 97 97 97 96 96 96 95 94 92 92 91 89 87 85 82 79 75 70 66 63 60 59 59 59 58 56 55 54 55 57 59 61 62 62 61 60 60 62 66 73 82 92 102 111 118 122 123 122 121 120 120 120 118 115 111 109 107 106 105 104 103 101 98 94 90 85 82 80 80 82 83 85 87 89 92 94 95 96
98 98 99 99 99 99 99 99 99 98 98 97 97 97 96 95 93 92 91 90 88 86 83 80 76 71 66 62 59 58 58 58 58 57 56 55 56 58 60 62 63 64 63 62 62 62 66 71 79 88 97 107 115 121 124 125 124 123 122 122 120 117 114 111 109 108 107 106 106 105 103 100 95 90 85 83 82 83 84 85 86 88 90 92 93 95
101 101 101 101 101 101 101 100 100 99 99 98 98 97 96 95 94 93 92 90 88 86 83 81 77 73 68 63 59 57 57 58 58 57 57 56 57 58 60 63 64 65 65 64 64 64 66 70 76 84 93 103 112 119 123 125 126 126 125 124 123 120 118 114 112 110 109 108 108 107 106 105 101 96 90 86 84 84 85 86 87 88 89 90 91 93
103 103 103 103 103 103 102 101 101 100 100 99 98 97 97 96 95 93 92 90 88 86 83 81 78 74 69 64 60 57 56 57 57 58 57 57 58 59 61 63 65 66 67 66 66 65 66 70 75 82 90 98 107 115 122 125 127 128 128 127 126 124 121 118 115 112 111 110 109 109 109 108 105 101 95 89 86 85 87 88 89 90 90 91 91 91
105 105 105 105 104 104 103 103 102 101 101 100 99 98 97 96 95 93 92 90 88 86 83 81 78 75 70 65 60 57 56 56 57 58 58 58 59 59 61 64 66 68 68 68 68 67 67 70 74 80 87 95 103 111 119 124 127 129 130 129 128 126 124 121 118 115 113 111 111 110 110 110 108 105 99 94 89 88 88 90 91 92 92 92 92 92
106 106 106 106 105 105 104 104 103 102 101 100 99 98 97 96 95 93 91 89 87 85 83 81 78 75 71 67 62 58 56 56 56 57 58 59 60 60 62 64 67 69 70 70 70 69 69 70 74 79 85 92 100 107 115 121 126 129 131 131 130 128 126 124 121 118 115 113 112 111 111 111 111 108 104 98 93 90 90 91 93 94 94 94 93 93
108 107 107 107 106 106 105 105 104 103 102 101 99 98 97 96 94 92 91 89 87 85 83 81 78 75 72 68 64 60 57 56 56 57 58 59 60 61 62 65 67 69 71 72 72 71 70 71 74 78 84 90 97 104 111 118 124 128 131 132 131 130 127 125 122 120 117 115 113 112 112 112 112 110 107 102 97 93 92 92 93 95 95 95 94 93
109 108 108 108 107 107 106 105 105 103 102 101 99 98 96 95 94 92 90 88 86 85 83 80 78 76 72 69 65 61 58 57 56 57 58 59 61 62 63 65 68 70 72 73 73 73 72 73 75 78 83 89 95 101 108 115 121 126 130 132 132 131 128 125 123 121 119 117 115 114 113 113 113 112 109 105 100 96 94 93 94 95 95 95 95 94
110 109 109 108 108 107 106 106 105 104 102 101 99 97 96 95 93 91 90 88 86 84 82 81 79 76 73 70 67 63 60 58 57 57 58 60 61 63 64 66 68 70 73 74 75 75 74 74 75 78 82 87 93 99 106 112 118 124 129 132 133 132 130 127 124 122 120 119 117 115 114 114 114 113 111 108 103 99 96 95 94 95 95 95 95 95
110 110 109 109 108 107 106 106 104 103 102 100 98 97 95 94 93 91 90 88 86 85 83 81 79 77 74 71 68 65 62 60 59 58 59 60 62 64 65 67 69 71 73 75 76 76 76 76 77 78 82 86 92 97 103 109 115 121 126 130 133 133 131 128 125 123 121 120 119 117 115 115 114 113 112 109 106 102 98 96 95 95 95 95 95 95
110 110 110 109 108 107 106 105 104 103 101 99 98 97 95 94 92 91 90 88 87 85 84 82 80 78 75 73 70 67 64 62 60 60 59 60 62 64 66 67 69 72 74 76 77 78 78 78 78 79 82 86 90 96 101 107 113 118 123 128 131 133 133 130 127 124 122 121 120 118 117 115 115 114 113 111 107 104 100 98 97 96 96 96 96 96
110 110 109 108 108 107 106 104 103 102 101 99 98 97 95 94 92 91 90 89 88 86 85 83 81 79 77 75 72 69 66 64 62 61 61 61 63 65 66 68 70 72 75 77 78 79 80 80 80 81 82 85 89 94 99 105 110 116 121 125 129 132 132 131 129 126 124 122 121 119 118 116 115 115 114 112 109 106 102 100 98 97 97 97 97 96
109 109 108 108 107 106 105 104 103 102 101 100 98 97 96 94 93 92 91 89 88 87 86 84 82 80 79 77 74 71 68 66 64 62 62 62 64 65 67 69 71 73 75 77 79 80 81 81 82 82 83 85 89 93 98 103 108 113 118 123 127 130 131 131 130 127 125 123 121 120 118 117 116 115 114 113 110 107 104 101 99 98 98 98 97 97
109 108 108 107 106 106 105 104 103 102 101 100 99 98 97 95 94 93 92 91 90 88 87 85 83 82 81 79 76 74 71 68 66 64 64 64 64 65 67 69 71 74 76 77 79 80 82 83 84 84 84 86 88 92 96 101 106 111 116 121 125 128 130 131 130 128 126 124 123 121 119 118 117 116 115 114 112 109 106 103 101 100 99 99 98 98
109 108 107 107 106 106 105 104 104 103 102 101 100 99 98 97 95 94 93 92 91 89 88 86 85 84 82 80 78 76 74 71 68 67 66 65 65 66 68 70 72 74 76 78 79 81 83 84 85 85 86 87 89 91 95 99 104 109 114 119 123 127 129 130 130 129 127 125 124 122 120 118 117 116 116 114 112 110 107 105 103 102 101 100 99 99
109 108 108 107 107 106 106 105 104 104 103 102 101 100 99 98 97 96 95 94 92 90 89 88 86 85 83 82 80 79 76 74 71 70 68 67 66 67 69 71 73 75 77 79 80 82 83 85 86 87 87 88 89 91 94 98 102 107 111 116 121 125 128 130 130 129 128 126 125 123 122 119 117 116 116 115 113 111 109 106 105 103 102 102 101 100
110 109 109 108 108 107 107 106 106 105 104 104 103 102 101 99 98 97 97 95 93 92 90 89 88 86 85 84 82 80 78 77 75 73 70 69 68 68 69 71 73 75 78 79 81 82 84 86 87 88 89 89 90 91 94 97 100 105 109 114 119 123 127 129 131 130 129 128 127 125 123 121 118 117 116 115 114 113 110 108 106 105 104 103 102 101
111 110 110 109 109 109 108 108 107 107 106 105 104 103 102 101 100 99 98 96 94 93 92 91 89 88 86 85 83 82 81 80 78 76 73 71 71 71 71 71 73 76 78 80 82 83 85 87 88 89 90 91 91 92 94 96 99 103 107 112 116 121 125 129 131 131 131 129 129 128 126 123 120 118 116 115 115 114 112 110 108 107 106 105 104 103
112 112 111 111 110 110 109 109 108 108 107 107 106 105 104 102 101 100 98 96 95 94 93 91 90 89 87 86 85 84 83 82 81 79 76 74 73 73 72 72 73 76 78 80 82 84 86 88 89 90 91 92 92 93 94 96 98 102 105 110 114 119 123 127 130 132 132 131 131 130 129 126 123 120 118 116 116 115 113 112 110 108 107 106 105 104
113 113 113 112 112 111 111 110 110 109 108 108 107 106 105 104 102 101 99 97 96 95 93 92 91 89 88 87 86 85 85 84 83 81 79 78 76 75 73 73 75 76 78 80 83 85 87 88 90 91 92 93 94 94 95 96 98 101 104 108 112 117 121 126 129 132 133 133 132 132 131 129 127 124 121 119 117 116 115 113 112 110 109 108 107 105
115 114 114 113 113 112 112 111 110 110 109 108 107 106 105 104 103 101 100 98 97 95 93 92 91 89 88 87 87 86 86 85 84 83 81 80 79 77 75 75 76 77 78 80 83 85 87 89 90 92 93 94 95 96 96 97 98 101 103 106 110 114 119 124 128 131 133 134 134 134 133 132 131 128 125 122 120 118 117 115 113 112 111 109 108 107
115 115 114 114 113 113 112 112 111 110 109 108 107 106 105 104 102 101 99 98 96 95 93 92 91 89 88 87 87 86 86 85 85 84 83 82 81 79 78 78 78 79 79 81 83 86 88 90 91 92 94 95 96 97 97 98 99 101 103 106 109 113 117 122 126 130 133 134 135 135 135 135 134 132 130 127 124 121 119 117 115 114 112 111 110 109
115 115 114 114 113 113 112 111 111 110 109 108 107 106 104 103 102 100 99 97 96 94 93 92 91 89 88 87 86 86 85 85 85 85 84 84 83 82 80 80 80 80 81 82 84 86 88 90 91 93 94 96 97 98 99 99 100 102 103 105 108 111 115 119 124 128 132 134 135 136 136 136 137 136 134 132 128 125 122 120 118 116 114 113 111 110
115 114 114 113 113 112 112 111 110 109 108 107 106 105 104 103 101 100 98 97 96 94 93 92 91 89 88 87 87 86 86 86 85 85 85 85 84 84 83 82 82 83 83 83 84 86 88 90 92 93 95 96 98 99 101 101 102 103 104 106 108 111 114 117 122 126 130 133 135 136 136 137 138 139 138 136 133 130 126 123 121 119 116 115 113 112
114 114 113 113 112 112 111 110 109 108 107 107 106 104 103 102 101 100 99 98 96 95 94 92 91 90 89 88 87 87 87 86 86 86 86 86 86 85 85 84 85 85 85 85 86 87 89 91 93 94 95 97 98 100 102 103 104 104 105 106 108 110 113 116 120 124 128 132 134 136 137 137 139 140 141 140 138 135 131 128 125 122 119 117 115 114
114 114 113 113 112 111 111 110 109 108 107 106 105 104 103 102 102 101 100 99 98 97 95 94 93 92 90 89 89 88 88 88 88 87 88 88 87 87 87 87 87 87 87 88 88 89 90 92 94 95 96 98 99 101 103 104 105 106 106 107 109 110 113 115 118 122 126 130 133 135 136 137 138 140 142 143 142 139 136 133 129 126 123 120 118 116
115 114 113 112 112 111 111 110 109 108 107 106 105 105 104 103 102 102 101 100 99 98 97 96 95 94 92 91 90 90 89 89 89 90 90 90 90 89 89 89 89 89 89 90 91 91 92 93 95 96 98 99 100 102 103 105 106 107 108 109 110 111 113 115 117 120 124 128 132 134 136 137 138 139 141 143 144 143 141 138 134 131 127 124 121 119
115 114 113 112 112 111 110 110 109 108 107 106 106 105 104 104 103 103 102 102 101 100 99 98 97 96 95 94 93 92 91 91 92 92 93 93 93 93 92 92 92 92 92 93 93 94 94 95 97 98 100 101 102 103 104 106 107 109 110 111 111 112 113 115 117 119 122 126 130 133 135 136 137 138 140 143 145 145 145 143 140 136 132 128 125 122
115 114 114 113 112 111 110 110 109 108 107 107 106 105 105 105 104 104 103 103 102 102 101 100 99 98 97 96 95 94 94 94 94 94 95 96 96 96 95 95 95 95 95 95 96 96 97 98 99 101 102 103 104 104 105 106 108 110 112 112 112 113 115 116 117 119 122 124 128 131 134 135 136 137 139 141 144 146 147 147 145 142 138 133 129 125
116 115 114 113 112 111 111 110 109 108 108 107 107 106 106 106 105 105 105 104 104 103 102 102 101 100 99 98 97 97 96 96 96 97 98 98 99 99 99 99 99 99 98 99 99 99 100 101 102 103 104 106 107 107 107 108 110 111 112 114 115 116 116 117 118 120 121 124 126 130 132 135 136 137 138 140 142 145 148 149 149 147 143 139 134 130
116 115 114 113 112 112 111 110 110 109 108 108 108 108 107 107 107 107 106 106 106 105 104 104 103 102 102 101 100 99 99 99 99 100 100 101 101 102 102 102 102 102 102 102 102 103 103 104 105 106 107 109 110 110 110 111 112 112 114 115 117 118 118 118 119 121 122 123 126 128 131 134 136 137 138 139 141 144 147 149 150 150 148 145 140 135
116 115 114 113 112 112 111 111 110 110 109 109 109 109 109 108 108 108 108 108 108 107 106 106 105 104 103 103 102 101 101 101 101 102 103 103 104 104 105 105 105 105 105 106 106 106 107 107 108 109 111 112 113 113 114 114 114 114 115 117 118 119 119 120 121 122 123 124 126 128 130 133 135 137 138 139 140 142 145 147 150 151 152 150 146 141
115 114 114 113 112 112 111 111 111 111 110 110 110 110 110 110 110 110 110 110 110 109 108 107 106 105 105 104 103 103 103 103 103 104 105 105 106 106 107 108 108 108 108 109 109 110 110 111 111 112 114 116 117 117 118 118 118 118 118 119 120 121 122 123 123 124 124 126 127 128 130 132 135 137 138 139 139 141 143 145 148 151 153 153 151 147
115 114 114 113 113 112 112 112 112 111 111 111 111 111 111 111 111 111 111 111 110 109 108 108 107 106 105 104 104 103 103 103 104 105 106 107 107 108 109 109 110 111 111 111 112 113 113 114 115 116 118 119 120 121 122 122 122 121 122 122 123 123 125 126 126 126 126 127 128 129 130 132 134 136 137 138 139 140 141 143 146 149 152 154 154 151
115 115 114 113 113 113 113 112 112 112 111 111 111 111 111 111 110 110 110 109 109 109 108 107 106 105 105 104 104 103 103 103 104 105 106 107 108 109 110 111 112 112 113 114 114 115 116 117 118 119 120 121 123 125 126 126 126 126 126 126 126 126 127 127 128 128 128 129 130 131 132 133 134 135 137 138 139 140 141 142 144 147 150 153 154 154
115 115 114 114 113 113 112 112 111 111 110 110 110 109 109 108 108 108 108 107 107 106 106 105 105 104 104 103 103 102 102 102 103 104 105 107 108 109 110 112 113 113 114 115 116 117 118 119 120 121 122 124 126 128 129 130 130 130 130 130 130 129 129 130 130 131 131 132 132 133 133 134 134 135 137 139 140 141 142 142 144 146 148 151 154 155
114 114 113 112 112 111 110 110 109 108 108 107 107 106 106 105 105 105 105 104 104 103 103 103 103 102 102 101 101 101 101 101 102 102 104 105 107 109 110 111 113 113 114 115 116 117 119 120 122 123 124 126 128 130 132 132 133 133 134 134 133 133 133 133 133 134 134 134 135 135 135 135 135 136 138 139 140 141 142 142 143 144 147 149 152 154
112 112 111 110 109 108 108 107 106 105 104 104 103 103 102 102 101 101 101 101 101 100 100 100 100 100 100 99 99 99 99 99 99 100 101 103 105 107 109 110 111 113 114 115 116 117 119 120 122 124 126 128 130 132 134 135 135 136 137 137 137 137 137 137 137 137 136 137 138 138 138 137 138 138 139 140 140 141 142 143 143 144 145 147 150 152
110 109 108 107 106 105 104 103 102 101 100 100 99 99 98 98 98 98 97 97 97 97 97 97 97 97 97 97 96 96 96 97 97 98 99 100 102 104 106 108 110 111 112 114 115 116 118 119 121 124 126 129 131 133 135 136 137 138 139 140 140 140 140 140 140 139 139 139 140 140 140 140 140 140 140 140 141 142 142 143 144 145 145 146 148 150
107 106 105 103 102 101 100 99 98 97 97 96 96 96 95 95 95 94 94 94 94 94 94 94 94 94 94 94 94 94 94 94 94 95 96 98 99 101 103 105 107 108 110 112 113 115 116 118 120 123 125 128 131 133 135 137 138 140 141 142 143 143 143 143 143 142 142 142 142 143 143 143 143 142 141 141 141 142 143 144 144 145 146 146 147 149
Wind_Direction
277 277 278 279 279 280 280 281 282 282 283 283 284 284 285 286 286 287 288 289 290 291 292 293 293 294 293 291 289 286 284 282 278 275 270 267 264 263 262 260 258 251 239 228 220 214 210 206 203 201 200 200 202 204 205 206 207 209 210 211 213 215 217 219 220 222 223 223 224 224 225 225 226 226 226 226 226 225 225 224 224 224 224 224 224 224
277 277 278 278 279 280 280 281 282 283 283 284 285 285 286 286 287 287 288 289 290 291 292 293 293 293 293 291 289 286 283 281 278 274 269 265 262 261 259 258 256 250 241 230 222 216 212 208 204 202 201 201 202 204 205 206 207 209 211 212 214 216 217 218 219 220 221 222 223 224 224 225 226 227 227 227 227 226 226 225 225 224 224 224 224 225
277 277 278 278 279 280 280 281 282 283 284 284 285 286 286 287 287 288 288 289 289 290 291 292 293 293 292 291 288 285 283 280 277 273 269 264 261 259 257 256 254 250 243 233 224 218 214 210 206 203 202 201 202 204 205 206 208 209 211 213 214 216 217 218 219 220 220 221 222 223 224 225 226 227 228 228 228 228 227 226 226 225 225 225 225 225
277 278 278 278 279 280 280 281 282 283 283 284 285 286 286 287 287 288 288 289 289 290 290 291 292 292 292 290 288 285 282 279 276 272 268 263 260 257 255 254 252 249 243 235 227 220 216 212 208 205 203 202 203 204 205 206 208 210 211 213 215 216 218 218 219 219 220 221 221 222 223 224 225 226 227 228 229 229 228 228 227 226 225 225 225 225
278 278 278 279 279 280 280 281 282 283 283 284 285 286 286 287 287 288 288 288 289 289 290 290 291 291 291 290 288 285 281 278 275 271 267 262 258 256 253 252 250 248 244 237 229 223 218 214 210 207 205 203 203 204 205 206 208 210 211 213 215 216 218 218 219 219 219 221 222 222 223 223 224 225 227 228 229 229 229 229 228 227 226 226 226 225
278 279 279 279 280 280 281 281 282 283 284 284 285 286 286 287 287 288 288 288 289 289 289 289 290 290 290 289 287 284 281 278 274 270 266 261 257 254 252 250 249 247 244 238 232 225 220 216 212 209 207 205 204 204 205 206 208 210 211 213 215 216 218 219 219 219 220 221 222 222 223 223 224 225 226 228 229 229 230 229 229 228 227 226 226 226
279 279 280 280 280 281 281 282 283 283 284 285 285 286 286 287 287 288 288 288 288 288 288 289 289 289 289 288 286 283 280 277 273 269 265 260 256 253 251 249 247 246 243 239 233 227 222 218 214 211 209 207 205 205 205 207 208 210 211 213 215 216 218 219 220 220 220 221 222 223 223 223 224 224 225 227 228 230 230 230 229 229 228 227 227 227
279 280 280 280 281 281 282 282 283 283 284 285 285 286 286 287 287 287 287 288 288 288 288 288 288 288 287 287 285 282 279 276 272 268 264 259 255 252 249 248 246 245 243 239 235 229 224 220 216 213 211 209 207 206 206 207 208 210 212 213 215 216 218 219 220 221 221 222 222 223 223 224 224 224 225 226 228 229 230 230 230 229 229 228 227 227
279 280 280 281 281 282 282 283 283 284 284 285 285 286 286 287 287 287 287 287 287 287 287 287 287 287 286 285 283 281 278 275 272 268 263 258 254 251 248 246 245 244 242 240 236 231 226 222 218 215 213 211 209 208 207 207 208 210 212 213 215 216 218 220 221 221 222 222 223 223 224 224 225 225 225 226 227 229 230 230 230 230 230 229 229 228
279 280 281 281 282 282 283 283 284 284 284 285 285 286 286 286 287 287 287 287 287 287 287 287 287 286 285 284 282 280 277 274 271 267 262 258 253 250 247 245 244 243 241 239 236 232 228 224 220 217 214 212 211 209 208 208 208 210 212 213 215 216 218 219 221 221 222 223 223 224 224 225 225 225 226 226 227 228 229 230 231 231 230 230 230 230
280 280 281 281 282 282 283 283 283 284 284 285 285 285 286 286 286 287 287 287 287 286 286 286 285 285 284 283 281 278 275 273 270 266 262 257 253 249 246 244 243 242 241 239 237 233 229 225 222 219 216 214 213 211 210 209 209 210 212 213 215 216 217 219 220 221 222 223 224 224 225 225 225 226 226 226 226 227 228 229 230 231 231 231 231 231
280 280 281 281 282 282 282 283 283 284 284 284 285 285 285 286 286 286 287 287 287 286 286 285 284 284 283 281 279 277 274 271 269 265 261 257 252 248 245 243 242 241 240 239 237 234 230 227 223 220 218 216 214 213 212 211 210 211 212 214 215 216 217 218 220 221 222 223 224 225 225 225 225 226 226 226 226 227 228 229 230 230 231 232 232 233
280 281 281 281 281 282 282 283 283 283 284 284 284 285 285 285 285 286 286 286 286 286 285 285 284 283 281 280 277 275 272 270 267 264 260 256 252 248 245 243 241 240 239 238 237 234 231 228 225 222 220 218 216 215 214 212 212 212 213 214 215 216 216 218 219 221 222 223 224 225 225 226 226 226 226 226 226 226 227 228 229 230 231 231 232 233
281 281 281 281 281 282 282 282 283 283 283 283 284 284 284 285 285 285 285 285 285 285 285 284 283 282 280 278 275 273 270 268 266 263 260 256 252 248 245 242 241 239 238 237 236 234 232 229 226 223 221 219 218 216 215 214 213 213 213 214 215 216 216 217 219 220 221 223 224 225 226 226 226 226 226 226 226 226 226 227 227 228 229 230 231 232
281 281 281 281 281 281 282 282 282 282 283 283 283 284 284 284 284 284 284 284 284 284 284 283 282 281 280 277 274 271 268 266 264 262 259 255 251 248 245 242 240 239 238 237 236 235 232 230 227 224 222 220 219 218 217 216 215 215 215 215 216 217 217 217 218 219 221 222 224 225 226 226 226 226 226 227 227 227 226 226 227 227 228 229 230 230
281 281 281 281 281 281 281 282 282 282 282 282 283 283 283 283 283 283 283 283 283 283 283 282 282 280 279 276 273 269 267 265 263 261 258 255 251 247 244 242 240 239 237 236 236 234 233 230 228 225 223 222 220 219 218 217 217 216 216 216 217 217 218 218 218 219 220 222 223 225 226 226 226 226 227 227 227 227 227 226 227 227 227 228 229 229
281 281 281 281 281 281 281 281 281 282 282 282 282 282 282 282 282 282 282 282 282 282 281 281 280 280 278 276 272 268 265 263 261 259 257 255 251 247 244 242 240 239 237 236 235 234 233 231 229 226 224 222 221 220 219 219 218 218 217 217 217 218 218 219 219 219 220 222 223 224 225 226 227 227 227 227 227 228 227 227 227 227 227 228 228 229
280 281 281 281 281 281 281 281 281 281 281 282 282 282 282 282 282 281 281 281 281 281 280 280 279 278 277 276 272 268 264 261 259 258 256 254 251 248 244 242 240 239 237 236 235 234 233 231 229 227 225 223 222 221 220 220 219 219 218 218 218 218 219 219 220 220 221 222 223 224 225 226 226 227 227 227 228 228 228 228 227 227 228 228 228 229
280 280 280 280 280 281 281 281 281 281 281 281 281 281 281 281 281 281 280 280 280 279 279 279 278 277 276 274 272 268 264 260 257 256 254 253 251 248 244 242 240 239 238 236 235 234 233 232 230 228 226 224 223 222 221 220 220 220 219 219 218 218 219 220 220 221 221 222 223 224 225 226 227 227 227 227 228 228 229 228 228 228 228 228 228 229
280 280 280 280 280 280 280 280 280 281 281 281 281 281 280 280 280 280 280 279 279 278 278 278 277 276 275 273 271 268 264 260 257 254 253 251 250 248 245 242 240 239 238 236 235 234 233 232 230 229 226 225 223 222 222 221 221 221 220 219 219 219 219 220 220 221 221 222 223 224 225 226 227 227 227 228 228 229 229 229 228 228 228 228 228 229
280 280 280 280 280 280 280 280 280 280 280 280 280 280 280 280 279 279 279 279 278 278 277 277 276 275 274 273 270 268 264 260 256 253 251 250 249 247 245 242 240 239 238 236 235 234 233 232 231 229 227 225 224 223 222 222 222 221 221 220 219 219 219 219 220 220 221 222 223 224 225 226 227 227 228 228 228 229 229 229 229 228 228 228 228 229
279 279 280 280 280 280 280 280 280 280 280 280 280 279 279 279 279 278 278 278 278 277 277 276 275 274 273 272 270 267 264 260 256 253 250 249 248 246 245 242 240 239 238 236 235 234 233 233 232 230 228 226 225 223 223 222 222 222 221 221 220 219 219 219 220 220 221 221 222 224 225 226 227 227 228 228 229 229 229 229 229 229 228 228 229 229
279 279 279 279 279 279 279 279 280 279 279 279 279 279 279 278 278 278 278 277 277 276 276 275 275 274 273 271 269 267 264 260 256 253 250 248 247 246 244 242 240 239 238 237 235 234 233 233 232 231 229 227 226 224 223 223 222 222 222 221 221 220 220 219 220 220 220 221 221 223 224 225 226 227 228 228 228 229 229 229 229 229 229 229 229 229
278 279 279 279 279 279 279 279 279 279 279 279 279 278 278 278 277 277 277 276 276 276 275 275 274 274 272 271 269 267 264 260 257 253 250 247 246 245 244 242 240 239 237 237 236 235 233 233 232 231 230 228 226 225 224 223 223 223 222 222 221 220 220 220 220 220 220 220 221 222 223 224 225 226 227 228 228 228 229 229 229 229 229 229 229 229
278 278 278 278 278 278 278 278 278 278 278 278 278 278 277 277 277 276 276 276 275 275 274 274 274 273 272 271 270 268 264 261 257 254 250 247 245 244 243 242 240 239 237 236 236 235 234 233 233 232 231 229 228 226 225 224 223 223 223 222 222 221 220 220 220 220 220 220 220 221 222 223 224 225 226 227 227 228 228 229 229 229 229 229 229 230
278 278 278 278 278 278 278 278 278 278 278 277 277 277 277 277 276 276 275 275 274 274 274 273 273 272 271 270 269 268 265 262 259 255 251 248 245 244 243 242 240 239 237 236 236 235 234 233 233 232 231 230 229 227 225 224 224 223 223 222 222 221 221 220 220 220 220 220 220 220 221 222 223 224 225 226 227 227 228 228 228 229 229 229 230 230
278 278 278 277 277 277 277 277 277 277 277 277 277 276 276 276 276 275 275 274 274 273 273 272 272 271 270 270 269 268 266 264 260 256 252 249 246 244 243 242 240 239 238 236 235 235 234 234 233 232 232 231 230 228 226 225 224 224 223 223 222 222 221 221 220 220 220 220 220 220 220 221 222 223 224 225 226 226 227 227 228 228 229 229 230 230
277 277 277 277 277 277 277 277 277 277 277 276 276 276 276 275 275 274 274 273 273 273 272 271 271 270 269 269 268 267 266 264 262 258 254 250 247 244 242 241 240 239 238 236 235 235 234 234 233 232 232 231 230 229 228 226 225 224 224 223 223 222 222 221 221 220 220 220 220 220 220 221 222 223 224 224 225 226 226 227 227 228 228 229 229 230
277 277 277 277 277 277 277 277 277 277 277 276 276 276 275 275 274 274 273 273 272 272 271 270 270 269 268 268 267 266 266 264 262 259 256 253 249 245 243 242 241 239 238 236 235 235 234 234 233 233 232 231 231 230 228 227 226 225 224 224 223 223 222 222 221 221 221 220 220 219 219 220 221 222 223 224 225 225 226 226 227 227 228 228 229 230
277 277 277 277 277 277 277 277 277 276 276 276 276 276 275 275 274 274 273 272 272 271 270 269 269 268 267 267 266 266 265 264 262 260 258 255 251 247 244 242 241 240 238 237 236 235 234 234 233 233 232 232 231 230 229 228 227 226 225 224 224 223 223 222 222 221 221 221 220 220 219 220 220 221 222 223 224 225 225 226 226 227 227 228 228 229
277 277 277 277 277 277 277 277 276 276 276 276 276 276 275 275 274 274 273 272 271 271 270 269 268 267 266 266 265 264 264 263 262 260 259 256 252 249 245 244 242 240 238 237 236 235 234 234 233 233 232 232 231 231 230 229 228 226 225 225 224 223 223 223 222 222 222 221 221 220 220 220 220 221 222 222 223 224 225 225 226 226 227 227 228 228
277 277 277 277 277 277 277 277 277 276 276 276 276 276 275 275 274 274 273 273 272 271 270 269 268 267 266 265 264 263 263 262 261 260 259 257 254 250 247 245 243 241 239 237 236 235 234 234 233 233 232 232 231 231 230 229 228 227 226 225 224 224 223 223 223 222 222 222 221 221 220 220 220 220 221 222 223 224 224 225 225 226 226 227 227 228
277 277 277 277 277 277 277 277 277 277 276 276 276 276 275 275 274 274 273 273 272 271 270 269 268 267 265 264 263 262 262 261 260 259 258 257 255 252 248 246 244 242 240 238 237 235 234 234 233 233 233 232 231 231 230 230 229 228 227 226 225 224 224 223 223 223 222 222 222 222 221 220 220 220 221 222 222 223 224 224 225 225 226 226 227 227
277 277 277 277 277 277 277 277 277 277 276 276 276 276 275 275 275 274 273 273 272 271 270 269 268 267 266 264 263 262 261 260 259 258 257 256 255 252 250 247 245 243 240 238 237 236 235 234 233 233 233 232 232 231 230 230 229 228 227 226 225 225 224 224 223 223 223 223 223 222 222 221 221 221 221 222 222 223 223 224 224 225 225 226 226 227
277 277 277 277 277 277 277 277 277 277 277 276 276 276 276 275 275 274 274 273 272 271 270 269 268 267 266 264 263 262 261 259 258 257 256 255 254 252 250 248 246 244 241 239 237 236 235 234 233 233 233 233 232 231 231 230 229 229 228 227 226 225 225 224 224 223 223 223 223 223 223 222 222 221 221 222 222 223 223 224 224 224 225 225 226 226
277 277 277 277 277 277 277 277 277 277 277 276 276 276 276 276 275 275 274 273 272 271 270 269 268 266 265 264 263 262 261 259 258 257 256 254 253 251 250 248 246 244 242 240 238 236 235 234 233 233 232 232 232 232 231 230 230 229 228 227 226 226 225 224 224 224 223 223 224 224 224 223 222 222 222 222 222 222 223 223 224 224 224 225 225 226
277 277 277 277 277 277 277 277 277 277 277 277 276 276 276 276 275 275 274 273 273 272 270 269 268 266 265 263 262 261 260 259 258 257 256 254 252 251 249 247 246 244 243 241 239 236 234 233 233 232 232 232 232 232 231 231 230 229 228 228 227 226 225 225 224 224 224 224 224 224 224 224 223 223 222 222 222 222 223 223 223 224 224 225 225 225
277 277 277 277 277 277 277 277 277 277 277 277 277 276 276 276 275 275 274 273 272 272 270 269 268 266 265 263 262 261 260 259 258 257 256 254 253 251 249 247 245 244 243 241 239 237 235 233 232 232 232 231 231 231 231 231 230 230 229 228 227 226 226 225 225 224 224 224 224 224 224 224 224 223 223 223 223 223 223 223 223 223 224 224 225 225
278 278 278 277 277 277 277 277 277 277 277 277 277 276 276 276 275 275 274 273 272 271 270 269 268 267 265 263 262 260 259 258 257 256 255 254 252 251 249 247 245 243 242 241 239 237 235 233 232 231 231 231 231 231 231 231 230 230 229 228 227 226 226 225 225 225 224 224 224 224 224 224 224 224 223 223 223 223 223 223 223 223 223 224 224 225
278 278 278 278 278 278 278 278 278 278 277 277 277 276 276 276 275 274 274 273 272 271 270 269 268 266 265 263 262 260 259 257 256 255 254 253 252 250 249 247 245 243 241 240 239 237 235 233 232 231 230 230 230 230 230 230 230 230 229 228 228 227 226 225 225 225 224 224 224 224 224 225 224 224 224 224 223 223 223 223 223 223 223 224 224 224
279 279 279 279 279 279 279 278 278 278 278 278 277 277 276 276 275 275 274 273 272 271 270 269 268 266 265 263 261 260 258 257 256 255 254 253 251 250 248 246 244 243 241 239 238 237 235 233 232 230 229 229 229 229 229 229 229 229 229 229 228 227 226 225 225 225 224 224 224 224 224 225 225 224 224 224 224 224 224 224 224 224 223 223 223 224
280 280 279 279 279 279 279 279 279 278 278 278 277 277 276 276 275 275 274 273 272 271 270 269 267 266 265 263 261 259 258 257 255 254 253 252 250 249 248 246 244 242 240 239 237 236 234 233 231 230 229 228 228 228 228 228 228 228 229 228 228 227 226 226 225 225 224 224 224 224 224 225 225 225 224 224 224 224 224 224 224 224 224 224 223 223
280 280 280 280 279 279 279 279 279 278 278 278 277 277 276 276 275 274 274 273 272 271 269 268 267 266 264 263 261 259 257 256 255 253 252 251 250 248 247 245 243 242 240 238 237 235 233 232 230 229 228 227 227 226 226 227 227 227 228 228 227 227 227 226 225 225 224 224 224 224 224 224 225 225 224 224 224 224 224 224 224 225 224 224 224 223
280 280 280 280 279 279 279 279 279 278 278 277 277 276 276 275 274 274 273 272 271 270 269 267 266 265 263 262 260 258 257 255 254 252 251 250 249 247 246 245 243 241 239 238 236 234 233 231 230 229 227 226 226 225 225 225 226 226 226 227 227 227 226 226 225 225 224 224 224 224 224 224 224 224 224 224 224 224 224 224 225 225 225 225 224 224
280 280 280 280 279 279 279 279 278 278 277 277 276 276 275 274 274 273 272 271 270 269 268 267 265 264 263 261 259 257 256 255 253 252 251 249 248 247 245 244 242 241 239 237 235 234 232 231 229 228 227 226 225 224 224 224 224 225 225 225 226 226 226 225 225 225 224 224 223 223 224 224 224 224 224 224 224 224 224 224 225 225 225 225 225 224
280 280 280 280 279 279 279 278 278 277 277 276 275 275 274 273 272 272 271 270 269 268 267 266 265 264 262 260 259 257 255 254 253 251 250 249 247 246 245 243 242 240 239 237 235 233 232 231 229 228 226 225 225 224 224 223 223 224 224 224 225 225 225 225 225 224 224 224 223 223 223 223 224 224 224 224 224 224 224 224 225 225 225 225 225 225
280 280 280 279 279 278 278 277 277 276 276 275 274 273 272 272 271 270 270 269 268 267 266 265 264 263 261 260 258 257 255 254 252 251 250 249 248 246 245 243 242 240 239 237 236 234 232 231 229 228 227 226 225 224 223 223 223 223 223 223 224 224 224 224 224 224 224 223 223 223 223 223 223 224 224 224 224 224 224 224 225 225 225 225 225 225
280 279 279 278 278 277 277 276 276 275 275 274 273 272 271 271 270 269 269 268 267 266 265 264 263 262 261 260 258 257 255 254 252 251 250 249 248 246 245 244 242 241 239 238 236 234 233 231 230 228 227 226 225 224 224 223 223 223 223 223 223 223 223 223 223 223 223 223 223 222 222 222 223 223 223 224 224 224 224 224 224 225 225 225 225 225
279 279 278 278 277 277 276 276 275 274 274 273 273 272 271 270 269 269 268 267 266 265 264 264 263 262 261 259 258 257 256 254 253 251 250 249 248 247 246 244 243 241 240 238 237 235 234 232 230 229 228 227 226 225 224 224 223 223 223 223 223 223 223 223 223 223 223 223 223 222 222 222 222 222 223 223 224 224 224 224 224 225 225 225 225 225
279 278 278 277 277 277 276 275 275 274 274 273 272 272 271 270 269 268 267 267 266 265 264 263 262 261 260 259 258 257 256 254 253 252 250 249 248 247 246 245 244 242 241 239 238 236 235 233 231 230 229 228 227 226 225 225 224 223 223 223 223 223 223 223 223 222 222 223 222 222 222 222 222 222 222 223 223 224 224 224 224 224 225 225 225 225
279 278 278 277 277 276 276 275 275 274 273 273 272 271 271 270 269 268 267 266 265 264 263 263 262 261 260 259 258 257 256 255 253 252 251 249 248 247 246 245 244 243 241 240 239 237 236 234 232 231 230 229 228 228 227 226 225 224 224 223 223 223 223 223 223 223 223 222 222 222 222 221 221 221 222 222 222 223 224 224 224 224 224 224 224 224
Height
10605 10605 10605 10605 10605 10603 10603 10603 10603 10603 10602 10603 10603 10604 10604 10605 10605 10605 10605 10604 10604 10603 10603 10602 10601 10600 10599 10598 10597 10596 10595 10595 10594 10594 10594 10594 10595 10595 10596 10597 10598 10598 10600 10601 10605 10608 10611 10612 10615 10618 10621 10626 10630 10635 10640 10643 10647 10650 10651 10651 10651 10652 10654 10657 10662 10667 10670 10671 10673 10675 10679 10683 10686 10690 10692 10695 10697 10700 10702 10705 10708 10710 10713 10716 10718 10721
10600 10600 10600 10600 10599 10598 10597 10597 10597 10597 10596 10596 10596 10596 10597 10598 10598 10598 10598 10598 10598 10598 10598 10597 10596 10595 10594 10593 10592 10591 10591 10590 10590 10589 10589 10590 10590 10591 10592 10593 10594 10595 10596 10598 10601 10603 10606 10609 10611 10614 10617 10621 10625 10629 10634 10638 10642 10645 10646 10647 10648 10648 10650 10652 10656 10660 10664 10668 10671 10674 10676 10679 10682 10685 10688 10690 10693 10695 10698 10701 10704 10706 10710 10712 10715 10718
10594 10593 10593 10593 10593 10593 10591 10591 10591 10591 10591 10590 10590 10590 10590 10590 10590 10591 10591 10591 10592 10592 10592 10592 10591 10590 10589 10588 10587 10586 10586 10585 10585 10585 10584 10585 10585 10586 10587 10588 10590 10591 10592 10594 10596 10600 10602 10605 10608 10611 10614 10616 10620 10625 10630 10633 10637 10640 10642 10643 10644 10645 10646 10649 10652 10655 10659 10663 10666 10670 10674 10677 10678 10680 10683 10685 10688 10690 10693 10696 10700 10703 10706 10708 10711 10713
10586 10586 10586 10587 10587 10587 10586 10586 10586 10585 10585 10585 10584 10584 10584 10584 10583 10584 10585 10585 10585 10586 10586 10586 10586 10585 10584 10583 10581 10581 10580 10580 10580 10580 10580 10580 10580 10581 10583 10584 10585 10586 10588 10590 10592 10595 10598 10601 10605 10608 10610 10613 10616 10620 10625 10629 10633 10635 10637 10638 10639 10640 10642 10644 10648 10652 10655 10660 10663 10665 10668 10672 10675 10676 10678 10680 10683 10685 10688 10692 10695 10699 10701 10704 10706 10709
10579 10580 10580 10580 10580 10580 10580 10580 10580 10580 10579 10579 10578 10578 10578 10577 10577 10577 10578 10578 10579 10580 10580 10581 10581 10580 10579 10578 10576 10575 10575 10575 10575 10575 10575 10575 10575 10576 10578 10579 10580 10581 10583 10585 10587 10590 10593 10597 10601 10604 10607 10610 10612 10616 10620 10625 10628 10630 10632 10633 10634 10635 10637 10640 10643 10648 10651 10656 10659 10661 10664 10667 10670 10673 10673 10675 10678 10680 10683 10686 10690 10694 10697 10700 10701 10704
10571 10572 10573 10573 10573 10573 10573 10573 10573 10573 10573 10572 10571 10571 10571 10571 10571 10571 10571 10571 10572 10573 10573 10575 10575 10575 10574 10573 10571 10570 10570 10570 10570 10570 10570 10570 10570 10571 10572 10574 10575 10576 10578 10580 10582 10585 10588 10592 10596 10600 10603 10606 10609 10612 10616 10620 10623 10626 10627 10628 10628 10630 10632 10636 10640 10644 10647 10651 10655 10657 10661 10663 10665 10667 10669 10670 10673 10675 10678 10681 10685 10688 10691 10695 10697 10699
10563 10564 10565 10566 10565 10565 10566 10566 10566 10566 10566 10565 10565 10565 10565 10564 10564 10564 10564 10565 10565 10566 10567 10568 10569 10569 10569 10568 10566 10565 10564 10564 10565 10565 10565 10565 10565 10566 10567 10568 10570 10571 10573 10575 10577 10580 10583 10586 10590 10594 10598 10602 10605 10608 10610 10614 10618 10621 10623 10623 10624 10625 10626 10631 10636 10640 10644 10646 10650 10653 10657 10660 10661 10663 10665 10666 10668 10670 10673 10675 10678 10682 10686 10689 10691 10693
10556 10556 10557 10558 10558 10558 10558 10558 10558 10559 10560 10559 10558 10557 10556 10556 10557 10557 10557 10558 10559 10560 10560 10561 10562 10563 10563 10562 10561 10559 10558 10558 10559 10560 10560 10560 10560 10561 10561 10563 10565 10566 10568 10570 10571 10574 10577 10581 10585 10588 10593 10596 10600 10603 10605 10608 10611 10615 10618 10620 10620 10621 10622 10625 10629 10634 10639 10642 10645 10648 10651 10655 10658 10660 10660 10661 10663 10665 10668 10670 10673 10676 10680 10683 10686 10688
10550 10549 10548 10550 10550 10550 10550 10550 10550 10551 10552 10551 10551 10550 10550 10549 10549 10549 10550 10550 10551 10553 10553 10554 10555 10556 10557 10557 10556 10554 10553 10552 10553 10554 10555 10555 10555 10555 10556 10557 10559 10560 10562 10564 10566 10568 10571 10575 10579 10583 10586 10590 10593 10596 10599 10602 10605 10608 10611 10613 10616 10617 10618 10620 10623 10626 10631 10636 10640 10643 10646 10648 10652 10655 10656 10656 10659 10661 10663 10666 10669 10671 10673 10676 10679 10682
10543 10543 10541 10541 10542 10543 10543 10542 10542 10543 10544 10544 10544 10543 10543 10542 10541 10541 10541 10542 10543 10545 10546 10548 10548 10549 10550 10551 10550 10548 10547 10546 10547 10548 10549 10549 10550 10550 10551 10551 10553 10555 10556 10558 10560 10563 10565 10569 10573 10576 10580 10583 10586 10590 10595 10597 10600 10602 10605 10607 10610 10611 10613 10615 10617 10620 10623 10627 10631 10636 10640 10643 10646 10649 10653 10654 10655 10656 10659 10661 10663 10665 10668 10670 10673 10676
10536 10536 10535 10535 10534 10535 10535 10535 10535 10535 10536 10536 10535 10535 10535 10535 10535 10535 10535 10534 10535 10536 10538 10540 10541 10543 10543 10544 10544 10543 10541 10541 10541 10542 10543 10543 10544 10545 10545 10546 10547 10549 10551 10553 10555 10557 10560 10563 10566 10570 10573 10576 10580 10583 10588 10591 10595 10596 10598 10601 10603 10606 10608 10609 10611 10615 10617 10620 10623 10626 10631 10636 10640 10643 10646 10649 10651 10652 10653 10654 10655 10658 10663 10666 10668 10670
10529 10528 10528 10527 10526 10526 10527 10528 10528 10528 10528 10528 10527 10527 10526 10527 10528 10528 10528 10527 10527 10528 10530 10531 10533 10536 10537 10538 10538 10537 10536 10535 10535 10536 10537 10538 10538 10539 10539 10540 10541 10543 10545 10547 10549 10551 10553 10556 10560 10563 10566 10570 10574 10576 10580 10583 10588 10591 10593 10595 10597 10600 10602 10604 10606 10608 10611 10613 10615 10618 10622 10627 10632 10636 10639 10642 10645 10648 10649 10648 10650 10652 10656 10660 10662 10664
10521 10521 10520 10520 10519 10518 10519 10520 10520 10520 10520 10520 10520 10520 10519 10519 10520 10521 10521 10520 10520 10521 10522 10523 10525 10527 10530 10531 10531 10531 10530 10529 10529 10530 10531 10532 10533 10533 10534 10535 10535 10537 10539 10541 10543 10545 10547 10550 10553 10556 10560 10563 10567 10571 10573 10576 10579 10582 10586 10590 10591 10593 10596 10598 10600 10602 10605 10606 10609 10611 10615 10619 10623 10628 10631 10635 10638 10641 10643 10645 10646 10647 10648 10651 10655 10658
10513 10512 10512 10511 10510 10510 10511 10511 10512 10512 10511 10512 10512 10512 10511 10511 10512 10513 10513 10513 10513 10514 10515 10516 10516 10518 10521 10523 10525 10525 10525 10523 10523 10524 10525 10526 10526 10528 10528 10528 10530 10531 10533 10535 10536 10538 10541 10543 10546 10549 10552 10556 10560 10564 10567 10570 10572 10575 10577 10581 10585 10587 10588 10591 10593 10596 10598 10600 10602 10605 10608 10611 10616 10620 10625 10628 10632 10635 10637 10639 10641 10643 10645 10646 10649 10651
10503 10503 10503 10503 10502 10501 10502 10503 10503 10503 10503 10504 10504 10505 10505 10504 10505 10505 10505 10506 10506 10507 10508 10508 10509 10510 10513 10515 10518 10519 10519 10518 10517 10518 10518 10519 10520 10521 10523 10523 10523 10525 10526 10528 10530 10532 10534 10536 10539 10541 10545 10549 10553 10556 10560 10563 10565 10568 10570 10572 10575 10579 10582 10584 10586 10588 10590 10593 10595 10598 10601 10605 10609 10613 10617 10621 10625 10628 10630 10633 10635 10636 10638 10640 10643 10645
10494 10495 10494 10493 10493 10493 10493 10494 10495 10495 10495 10495 10496 10496 10496 10496 10496 10497 10498 10498 10498 10500 10500 10501 10501 10502 10504 10506 10510 10511 10513 10512 10511 10511 10511 10512 10513 10515 10517 10517 10518 10518 10520 10522 10524 10526 10528 10530 10532 10535 10538 10541 10545 10548 10552 10555 10558 10560 10561 10564 10566 10570 10575 10578 10580 10581 10583 10586 10589 10591 10595 10598 10603 10606 10611 10614 10618 10621 10623 10626 10628 10630 10632 10634 10636 10639
10485 10485 10485 10485 10484 10484 10484 10485 10485 10485 10486 10486 10488 10488 10488 10488 10488 10489 10490 10490 10491 10492 10493 10493 10494 10495 10496 10498 10501 10504 10506 10506 10506 10505 10506 10506 10506 10509 10511 10511 10511 10512 10513 10515 10517 10519 10521 10523 10525 10527 10530 10533 10536 10540 10543 10547 10550 10551 10554 10556 10560 10564 10568 10572 10575 10577 10579 10581 10583 10586 10589 10592 10596 10600 10605 10608 10610 10613 10615 10618 10620 10623 10626 10628 10631 10633
10475 10475 10475 10475 10475 10475 10475 10475 10475 10476 10476 10478 10478 10479 10480 10480 10480 10481 10482 10483 10483 10485 10485 10486 10486 10488 10488 10490 10491 10495 10498 10500 10500 10500 10500 10499 10500 10501 10505 10506 10506 10506 10507 10509 10511 10513 10515 10516 10518 10520 10523 10525 10528 10532 10535 10538 10541 10543 10546 10550 10554 10559 10564 10568 10571 10574 10576 10578 10579 10581 10583 10586 10590 10594 10598 10601 10604 10606 10608 10611 10613 10616 10620 10623 10625 10627
10465 10465 10466 10465 10465 10465 10466 10465 10465 10466 10467 10468 10470 10470 10471 10471 10471 10473 10473 10474 10475 10476 10477 10478 10478 10480 10481 10482 10483 10486 10490 10492 10493 10493 10493 10493 10493 10495 10497 10499 10500 10500 10501 10502 10504 10506 10508 10510 10511 10513 10515 10518 10520 10523 10526 10530 10532 10535 10538 10543 10548 10552 10557 10563 10568 10570 10571 10573 10575 10576 10578 10580 10584 10588 10591 10595 10598 10600 10602 10604 10607 10611 10614 10617 10620 10621
10455 10455 10455 10455 10456 10456 10456 10455 10456 10456 10458 10459 10460 10461 10461 10462 10463 10464 10465 10465 10467 10468 10469 10470 10471 10471 10474 10475 10476 10478 10481 10484 10486 10486 10486 10486 10486 10487 10490 10492 10493 10494 10495 10495 10497 10499 10501 10503 10504 10505 10507 10510 10512 10515 10518 10521 10524 10527 10531 10535 10540 10545 10550 10555 10560 10563 10566 10567 10568 10570 10572 10575 10578 10581 10585 10589 10591 10595 10596 10598 10601 10604 10608 10611 10614 10615
10445 10445 10444 10445 10446 10447 10446 10445 10446 10447 10448 10450 10451 10452 10452 10453 10454 10455 10456 10457 10458 10459 10460 10461 10463 10464 10466 10468 10468 10470 10473 10476 10477 10478 10480 10480 10480 10480 10481 10484 10486 10487 10488 10489 10490 10493 10495 10495 10496 10498 10500 10502 10505 10507 10510 10513 10516 10520 10523 10527 10532 10537 10541 10546 10550 10554 10558 10560 10562 10564 10566 10569 10573 10576 10580 10583 10585 10588 10590 10593 10595 10598 10601 10604 10607 10610
10436 10435 10434 10435 10436 10436 10436 10436 10436 10438 10438 10440 10441 10441 10442 10444 10445 10446 10447 10448 10450 10450 10451 10453 10454 10456 10458 10460 10460 10461 10465 10467 10469 10470 10472 10473 10473 10472 10474 10476 10479 10480 10481 10481 10483 10486 10487 10488 10490 10491 10492 10495 10496 10499 10502 10505 10508 10511 10515 10520 10525 10529 10533 10538 10541 10545 10549 10553 10555 10558 10561 10563 10566 10570 10573 10576 10579 10582 10584 10586 10589 10591 10594 10597 10600 10603
10427 10426 10425 10426 10426 10426 10426 10426 10427 10428 10428 10430 10431 10431 10433 10435 10436 10437 10438 10440 10440 10441 10442 10444 10446 10448 10450 10450 10451 10453 10456 10458 10461 10463 10465 10466 10465 10465 10466 10469 10471 10473 10473 10475 10476 10478 10480 10481 10482 10483 10485 10487 10489 10491 10494 10496 10500 10503 10507 10511 10516 10521 10526 10530 10533 10536 10540 10544 10548 10551 10553 10556 10559 10562 10565 10569 10573 10575 10578 10581 10583 10585 10588 10590 10593 10596
10417 10417 10416 10416 10416 10416 10416 10417 10418 10418 10418 10420 10420 10421 10423 10425 10426 10428 10430 10431 10431 10432 10433 10436 10438 10439 10440 10441 10443 10445 10447 10450 10453 10455 10457 10458 10457 10458 10460 10461 10463 10465 10466 10468 10470 10471 10473 10474 10475 10476 10478 10480 10481 10483 10486 10488 10491 10495 10498 10503 10508 10513 10518 10522 10525 10528 10531 10535 10540 10544 10546 10549 10551 10555 10557 10561 10565 10568 10571 10574 10576 10579 10581 10584 10586 10588
10408 10408 10407 10407 10407 10407 10408 10408 10408 10408 10409 10410 10410 10411 10413 10415 10416 10418 10420 10421 10421 10423 10425 10428 10429 10430 10430 10432 10434 10436 10437 10441 10444 10446 10448 10449 10450 10451 10452 10453 10455 10456 10458 10460 10462 10464 10465 10466 10468 10468 10470 10471 10473 10476 10478 10480 10483 10486 10490 10494 10498 10503 10509 10513 10518 10521 10524 10527 10531 10535 10540 10543 10545 10547 10550 10553 10556 10560 10563 10566 10569 10572 10575 10577 10580 10582
10397 10397 10398 10398 10398 10398 10398 10398 10398 10399 10400 10400 10400 10401 10402 10405 10406 10408 10410 10410 10411 10413 10416 10419 10420 10421 10421 10424 10425 10426 10428 10431 10435 10437 10439 10441 10443 10444 10444 10445 10446 10448 10450 10453 10455 10456 10458 10459 10460 10461 10462 10464 10466 10468 10470 10473 10475 10478 10481 10485 10489 10494 10500 10505 10509 10513 10517 10520 10523 10526 10530 10534 10537 10540 10542 10545 10549 10552 10556 10559 10561 10564 10567 10570 10573 10575
10386 10387 10387 10387 10388 10388 10388 10388 10389 10389 10390 10390 10390 10391 10393 10395 10396 10398 10398 10399 10401 10404 10408 10409 10410 10411 10413 10416 10416 10418 10420 10422 10425 10426 10429 10432 10435 10436 10436 10437 10438 10440 10442 10445 10446 10448 10450 10451 10452 10453 10455 10456 10458 10460 10463 10465 10467 10470 10472 10476 10480 10485 10490 10495 10500 10505 10508 10512 10516 10519 10521 10525 10529 10532 10535 10538 10541 10545 10548 10551 10554 10556 10560 10563 10565 10568
10376 10376 10376 10377 10377 10378 10378 10378 10378 10379 10380 10380 10380 10381 10382 10385 10386 10387 10387 10388 10391 10395 10397 10398 10400 10403 10405 10406 10408 10409 10411 10413 10414 10415 10419 10423 10426 10426 10428 10429 10430 10431 10433 10435 10438 10440 10441 10443 10443 10445 10446 10448 10450 10452 10455 10456 10458 10461 10464 10467 10471 10475 10480 10485 10490 10495 10500 10503 10507 10511 10514 10517 10521 10525 10529 10532 10535 10538 10541 10544 10546 10549 10552 10555 10558 10561
10365 10365 10366 10366 10366 10367 10367 10368 10368 10368 10369 10370 10370 10370 10371 10374 10376 10376 10376 10379 10383 10386 10386 10387 10390 10393 10395 10397 10399 10401 10403 10403 10403 10404 10409 10414 10416 10416 10419 10422 10423 10423 10425 10426 10429 10431 10433 10433 10435 10436 10438 10440 10442 10444 10446 10448 10450 10453 10456 10458 10462 10466 10470 10475 10480 10485 10490 10494 10498 10502 10506 10509 10513 10516 10520 10525 10528 10531 10534 10536 10538 10541 10544 10548 10551 10554
10354 10355 10355 10355 10356 10356 10357 10357 10358 10358 10358 10358 10359 10360 10360 10362 10364 10365 10366 10369 10373 10375 10375 10376 10380 10383 10385 10387 10390 10392 10393 10393 10393 10395 10400 10403 10405 10406 10410 10414 10415 10414 10416 10418 10421 10423 10424 10424 10425 10428 10430 10431 10434 10436 10438 10440 10442 10445 10447 10450 10453 10456 10460 10465 10470 10475 10480 10485 10489 10493 10497 10501 10505 10508 10511 10515 10520 10523 10526 10528 10531 10533 10536 10540 10543 10546
10343 10343 10344 10344 10344 10345 10346 10346 10346 10347 10348 10348 10348 10349 10350 10351 10352 10354 10355 10358 10361 10363 10365 10366 10370 10373 10375 10378 10380 10381 10382 10382 10384 10386 10390 10392 10393 10396 10401 10405 10405 10405 10408 10410 10411 10413 10414 10415 10417 10419 10421 10423 10425 10427 10429 10431 10433 10436 10438 10441 10444 10447 10451 10455 10460 10465 10470 10475 10480 10484 10488 10492 10496 10500 10502 10506 10510 10514 10518 10520 10523 10525 10528 10531 10535 10539
10331 10332 10332 10332 10333 10333 10334 10335 10335 10335 10336 10336 10337 10338 10338 10340 10341 10343 10344 10346 10349 10351 10353 10356 10359 10361 10364 10367 10370 10370 10371 10373 10375 10377 10379 10381 10382 10386 10392 10395 10395 10395 10399 10401 10402 10403 10405 10407 10408 10410 10411 10414 10416 10418 10420 10422 10425 10426 10430 10432 10435 10438 10441 10445 10450 10454 10459 10464 10469 10474 10479 10483 10487 10490 10493 10496 10500 10504 10508 10512 10515 10518 10520 10524 10528 10531
10321 10321 10321 10321 10321 10322 10322 10323 10323 10324 10325 10325 10326 10326 10328 10328 10330 10331 10333 10335 10337 10340 10342 10345 10347 10350 10353 10355 10358 10360 10361 10363 10365 10366 10368 10370 10372 10375 10380 10383 10384 10385 10388 10391 10392 10393 10396 10398 10400 10401 10402 10404 10406 10408 10411 10413 10415 10417 10420 10423 10426 10428 10431 10435 10440 10444 10449 10453 10458 10464 10468 10473 10477 10481 10484 10487 10491 10495 10499 10503 10506 10510 10513 10516 10520 10523
10310 10310 10310 10310 10310 10311 10311 10311 10311 10312 10313 10313 10315 10315 10316 10317 10318 10320 10321 10323 10326 10328 10330 10333 10335 10338 10341 10343 10346 10348 10350 10353 10354 10355 10357 10360 10362 10364 10368 10372 10374 10375 10377 10380 10382 10383 10386 10388 10390 10392 10393 10394 10396 10399 10401 10403 10405 10408 10410 10413 10416 10419 10422 10426 10430 10434 10438 10443 10448 10453 10458 10463 10467 10471 10475 10478 10482 10485 10490 10494 10498 10502 10505 10508 10511 10515
10300 10300 10299 10299 10299 10300 10300 10300 10300 10301 10301 10302 10303 10304 10305 10306 10307 10308 10310 10312 10314 10316 10318 10321 10323 10326 10328 10331 10334 10336 10338 10340 10342 10344 10347 10349 10351 10353 10356 10360 10362 10363 10365 10369 10371 10373 10375 10378 10380 10383 10384 10385 10387 10390 10391 10393 10395 10398 10400 10403 10406 10410 10413 10416 10420 10424 10428 10433 10437 10442 10446 10451 10456 10461 10465 10469 10473 10476 10480 10485 10489 10493 10497 10500 10503 10506
10288 10288 10288 10288 10288 10288 10288 10289 10290 10290 10291 10291 10292 10293 10294 10295 10296 10297 10298 10300 10301 10303 10305 10308 10311 10313 10316 10320 10322 10324 10326 10328 10331 10333 10335 10336 10338 10341 10345 10348 10350 10351 10354 10356 10359 10361 10365 10366 10369 10372 10375 10376 10378 10379 10380 10382 10385 10388 10391 10393 10396 10400 10403 10406 10410 10413 10418 10422 10426 10431 10435 10440 10445 10450 10455 10459 10463 10467 10471 10476 10480 10484 10488 10492 10495 10499
10278 10277 10277 10277 10278 10278 10278 10278 10278 10279 10280 10280 10281 10282 10283 10284 10285 10286 10286 10288 10290 10291 10293 10295 10297 10300 10303 10307 10310 10312 10314 10316 10319 10321 10322 10323 10325 10328 10332 10335 10336 10340 10343 10344 10346 10349 10353 10355 10358 10361 10365 10366 10366 10368 10370 10372 10375 10378 10380 10383 10386 10389 10393 10396 10400 10403 10407 10411 10416 10420 10424 10429 10434 10439 10444 10448 10453 10458 10463 10467 10471 10475 10479 10483 10487 10491
10266 10266 10266 10266 10266 10267 10267 10267 10267 10267 10268 10269 10270 10271 10271 10273 10273 10274 10275 10275 10276 10278 10279 10281 10283 10286 10290 10293 10296 10300 10302 10305 10306 10308 10308 10309 10311 10315 10318 10320 10323 10327 10330 10331 10332 10336 10341 10344 10347 10350 10353 10354 10355 10357 10360 10362 10364 10366 10368 10371 10375 10379 10383 10386 10389 10393 10396 10400 10405 10408 10413 10417 10423 10428 10433 10438 10443 10448 10453 10457 10461 10465 10470 10473 10478 10482
10253 10254 10254 10254 10255 10255 10256 10256 10255 10256 10256 10258 10259 10259 10260 10260 10261 10261 10261 10262 10263 10265 10266 10268 10270 10272 10275 10278 10282 10285 10288 10291 10293 10294 10294 10295 10298 10300 10303 10306 10309 10313 10316 10317 10320 10323 10328 10331 10334 10336 10339 10341 10344 10346 10350 10351 10353 10355 10356 10360 10365 10370 10371 10374 10378 10381 10385 10390 10393 10398 10401 10406 10411 10416 10421 10426 10432 10437 10442 10446 10451 10455 10460 10464 10468 10473
10241 10241 10241 10241 10242 10243 10244 10244 10243 10243 10245 10246 10246 10247 10247 10247 10247 10248 10248 10248 10250 10251 10252 10253 10255 10258 10261 10264 10267 10271 10274 10276 10278 10279 10280 10281 10283 10285 10288 10291 10295 10297 10300 10303 10306 10310 10313 10316 10320 10323 10326 10330 10332 10335 10337 10340 10341 10343 10345 10350 10355 10358 10359 10362 10366 10371 10374 10378 10382 10386 10390 10395 10399 10405 10410 10415 10420 10425 10430 10435 10440 10444 10449 10454 10459 10464
10228 10228 10228 10228 10229 10230 10231 10231 10231 10231 10232 10233 10234 10233 10233 10233 10233 10233 10234 10234 10235 10236 10238 10239 10241 10243 10246 10249 10252 10255 10258 10261 10263 10264 10265 10266 10268 10270 10273 10275 10278 10281 10285 10288 10291 10294 10297 10301 10305 10308 10313 10316 10319 10321 10324 10327 10330 10331 10335 10339 10342 10343 10346 10351 10356 10360 10363 10366 10371 10375 10379 10383 10387 10392 10398 10403 10408 10414 10418 10423 10428 10433 10439 10444 10449 10454
10215 10215 10215 10216 10216 10218 10218 10218 10218 10218 10219 10219 10219 10219 10219 10219 10219 10219 10219 10220 10220 10221 10223 10224 10226 10228 10230 10233 10236 10239 10243 10245 10246 10248 10248 10250 10251 10253 10256 10258 10261 10265 10268 10271 10275 10278 10281 10285 10290 10293 10298 10301 10305 10307 10311 10314 10316 10320 10323 10326 10328 10330 10335 10341 10345 10347 10350 10355 10359 10363 10367 10371 10376 10380 10385 10391 10396 10402 10407 10412 10417 10423 10428 10433 10439 10445
10202 10202 10203 10203 10204 10205 10205 10205 10205 10205 10205 10205 10205 10205 10204 10204 10204 10204 10205 10205 10205 10205 10207 10209 10211 10213 10214 10216 10219 10223 10226 10228 10230 10231 10232 10233 10235 10237 10239 10242 10245 10248 10252 10256 10259 10262 10265 10270 10274 10278 10281 10285 10289 10293 10296 10300 10303 10307 10310 10313 10315 10319 10325 10329 10331 10333 10337 10343 10347 10351 10355 10360 10364 10368 10373 10380 10385 10391 10396 10401 10406 10411 10417 10422 10428 10435
10188 10189 10189 10190 10191 10191 10191 10191 10191 10191 10191 10191 10191 10191 10189 10189 10189 10190 10190 10189 10189 10190 10191 10193 10195 10197 10199 10201 10203 10206 10209 10211 10213 10214 10215 10216 10218 10220 10223 10226 10229 10232 10236 10240 10243 10246 10249 10253 10258 10262 10265 10268 10273 10278 10282 10286 10290 10293 10296 10298 10301 10306 10311 10313 10315 10320 10326 10331 10335 10339 10344 10348 10351 10356 10362 10368 10374 10380 10385 10390 10395 10400 10405 10411 10418 10425
10175 10175 10176 10176 10177 10177 10177 10177 10176 10176 10176 10177 10176 10176 10174 10174 10174 10174 10174 10174 10174 10174 10176 10178 10179 10181 10183 10185 10187 10189 10193 10195 10197 10198 10199 10200 10202 10204 10206 10209 10212 10216 10219 10223 10227 10230 10233 10238 10242 10246 10249 10253 10258 10264 10268 10271 10275 10278 10281 10284 10288 10292 10296 10298 10302 10308 10315 10318 10321 10326 10331 10335 10340 10345 10351 10356 10362 10368 10373 10378 10383 10388 10393 10400 10406 10414
10161 10161 10161 10161 10162 10163 10163 10162 10162 10162 10162 10162 10161 10160 10159 10159 10159 10159 10159 10159 10159 10159 10161 10162 10164 10166 10168 10169 10171 10174 10177 10180 10181 10182 10183 10184 10187 10189 10191 10193 10196 10199 10203 10207 10211 10215 10219 10223 10227 10231 10234 10239 10245 10249 10252 10255 10260 10265 10268 10270 10273 10277 10281 10285 10291 10297 10301 10303 10307 10313 10318 10323 10328 10333 10339 10345 10350 10355 10360 10366 10371 10376 10382 10388 10395 10403
10147 10147 10147 10147 10148 10148 10148 10147 10147 10147 10147 10146 10146 10144 10144 10144 10144 10144 10144 10144 10144 10145 10146 10148 10149 10151 10153 10154 10156 10159 10162 10164 10166 10167 10169 10170 10172 10173 10175 10178 10181 10184 10188 10192 10196 10201 10206 10210 10214 10218 10221 10227 10231 10234 10237 10241 10246 10251 10253 10255 10258 10263 10267 10271 10277 10281 10285 10288 10293 10300 10305 10310 10316 10322 10327 10331 10336 10342 10348 10354 10360 10365 10370 10376 10384 10391
10133 10133 10133 10132 10132 10132 10132 10132 10132 10132 10131 10131 10130 10129 10129 10130 10130 10130 10129 10129 10131 10132 10133 10134 10135 10136 10137 10139 10143 10145 10148 10149 10151 10153 10155 10156 10158 10158 10160 10162 10166 10169 10174 10178 10183 10188 10192 10197 10201 10205 10210 10214 10218 10220 10223 10228 10233 10238 10239 10241 10245 10249 10253 10257 10261 10266 10270 10274 10280 10286 10291 10298 10304 10309 10313 10319 10325 10331 10337 10343 10348 10353 10359 10365 10373 10380
10118 10118 10118 10117 10117 10117 10117 10117 10117 10117 10116 10116 10116 10115 10115 10116 10116 10116 10116 10116 10116 10118 10118 10119 10121 10122 10124 10126 10129 10131 10134 10136 10138 10140 10141 10143 10144 10144 10146 10148 10151 10156 10160 10164 10169 10174 10179 10184 10189 10193 10198 10201 10204 10208 10211 10216 10221 10224 10226 10228 10232 10236 10239 10243 10247 10251 10256 10261 10266 10272 10278 10285 10290 10295 10300 10307 10314 10320 10325 10330 10336 10342 10348 10354 10361 10368
10103 10103 10103 10103 10102 10102 10103 10103 10103 10103 10103 10102 10102 10101 10101 10102 10102 10103 10103 10103 10103 10104 10105 10106 10108 10109 10111 10113 10115 10118 10120 10123 10124 10126 10128 10129 10130 10131 10132 10134 10138 10142 10146 10151 10156 10161 10166 10171 10176 10181 10185 10189 10193 10196 10200 10204 10208 10211 10213 10216 10220 10224 10227 10229 10234 10239 10245 10248 10253 10258 10265 10271 10277 10283 10290 10296 10303 10308 10313 10318 10325 10330 10336 10343 10350 10356
10089 10089 10089 10088 10088 10088 10088 10088 10089 10089 10089 10089 10089 10089 10089 10089 10089 10089 10090 10090 10091 10091 10093 10094 10095 10097 10098 10100 10102 10104 10107 10109 10111 10113 10114 10116 10117 10118 10119 10122 10125 10129 10134 10138 10143 10148 10153 10158 10163 10168 10173 10178 10181 10184 10188 10192 10196 10200 10203 10206 10209 10212 10214 10218 10223 10228 10232 10235 10239 10245 10251 10258 10265 10271 10278 10285 10291 10296 10301 10307 10313 10318 10324 10331 10338 10345